Вернуться в каталог

QIANFAN-190

АктивенСвязьPO
NORAD 69408·PAYLOAD·🇨🇳 China

Запущен Jun 5, 2026 с Wenchang Space Launch Site

Loading…

Ближайшие Пролёты (ближайшие 24 часа)

TLE

СвежийSource: Space-Track

Эпоха: Sep 14, 2026, 20:13 UTC

1 69408U 26125H   26257.84251295  .00000025  00000-0  20676-4 0  9993
2 69408  88.9867 270.8847 0001875  96.1639 263.9726 13.51033256 14050

Отслеживайте QIANFAN-190 в реальном времени с AllMySat

Download on the App Store